Погода в Солнцевке

Россия / Омская область     54°59′17″N   71°17′24″E
темп.,
°C
ветер,
м/с
пор.,
м/с
влажн.,
%
обл.,
%
осадки,
мм/ч
давл.,
гПа
погр.,
м
17 сентября, пт
пт1700:00+11сз597570 1.9 999236
03:00+9зсз48730 0.0 999203
06:00+6з38805 0.0 1000175
09:00+8зюз511650 0.0 1000566
12:00+12зюз8114378 0.0 9982048
15:00+10з91252100 0.0 9981770
18:00+9з711607 0.1 9991317
21:00+8з71258100 0.0 9991226
18 сентября, сб
сб1800:00+7зсз71277100 0.1 10011425
03:00+6з61077100 0.1 1003962
06:00+5з6978100 0.1 1005832
09:00+6з6975100 0.0 1006928
12:00+8з71052100 0.1 10071788
15:00+9з71048100 0.0 10071731
18:00+9зюз5856100 0.0 10071269
21:00+7зюз5872100 0.1 1006643
19 сентября, вс
вс1900:00+6зюз4888100 0.8 1005675
03:00+4зюз5119044 0.0 1005354
06:00+2зюз511915 0.0 1005396
09:00+3зюз611765 0.0 1006688
12:00+4зюз81178100 0.1 10061031
15:00+5з81171100 0.5 10061215
18:00+5з71170100 0.9 10071290
21:00+3з71290100 0.3 1008882
20 сентября, пн
пн2000:00+2з71396100 0.4 1009870
03:00+2зсз71295100 0.3 1011893
06:00+2з71396100 0.4 1013845
09:00+3зсз71395100 0.2 1015819
12:00+4сз71079100 0.4 1017945
15:00+5сз7970100 0.3 10191095
18:00+5сз5869100 0.4 10211200
21:00+4сз4877100 0.1 1023538
21 сентября, вт
вт2100:00+3сз4887100 0.2 1024387
03:00+1ссз4792100 0.1 1025369
06:00+3ссз4671100 0.1 1026696
09:00+3сз4783100 0.0 1027492
12:00+5сз5562100 0.1 10261288
15:00+5зсз5660100 0.0 10261263
18:00+6зсз5654100 0.0 10251248
21:00+3з4968100 0.0 1025270